sat.trackr.live / text

‹ back to catalog

STARLINK-6179

NORAD 56910 · 2023-083AL

PAYLOAD ACTIVE UNKNOWN

§ Identity

Operator
Country
US
Launch date
2023-06-12
Launch site
AFETR
Launch vehicle
Mass (kg)
RCS (m²)

Purposes: comms

External: N2YO · Heavens-Above · Gunter

§ Orbital elements

Epoch: 2026-09-20T17:00:38.891808Z

Period
94.27 min
Inclination
43.0025°
Eccentricity
0.0001035
Mean motion
15.27577918 rev/d
Perigee alt
482.3 km
Apogee alt
483.8 km
Semi-major
6,861.2 km
B*
1.2720e-5
RAAN
49.3282°
Arg perigee
265.5637°
Mean anomaly
94.5096°
Rev number
18,161

§ Raw data

STARLINK-61791 56910U 23083AL  26263.70878347  .00000088  00000+0  12720-4 0  99912 56910  43.0025  49.3282 0001035 265.5637  94.5096 15.27577918181610

JSON: /api/v1/satellites/56910 · /tle

For live sub-satellite position, see the globe view (requires WebGL).

§ Visibility from observer

Set your observer location to see the next 7 days of passes ≥ 10°. The values pass through the URL so the page stays shareable.

No JS? Fill the form by hand. The geolocation button needs JavaScript.